Temperature
21 20 19 19 19 19 21 22 22 23 23 23 22 22 21 21 21 20 20 20 20 20 20 19 19 20 20 20 20 20 20 20 19 19 19 19 19 19 19 19 18 18 18 18 18 18 18 18 18
21 20 19 19 19 20 21 22 22 23 23 23 22 22 21 20 20 19 19 20 20 20 20 20 20 20 20 20 20 20 20 20 19 19 19 19 19 19 19 19 19 19 18 18 18 18 18 18 18
20 20 19 18 20 20 22 23 23 24 23 23 22 21 21 20 19 20 20 20 20 20 20 20 20 20 20 20 20 20 19 19 19 19 19 19 19 19 19 19 19 19 19 18 18 18 18 18 18
20 20 19 18 21 21 22 23 23 23 23 22 21 20 20 20 20 20 20 20 20 20 20 20 20 20 20 19 19 19 19 19 19 19 19 19 19 19 19 19 19 19 18 18 18 18 18 18 18
20 20 18 19 20 21 22 23 24 23 23 22 21 20 19 20 21 21 21 20 20 20 20 19 20 19 19 19 19 19 19 19 19 19 19 19 19 19 19 19 19 19 18 18 18 18 18 18 18
20 19 18 19 21 22 23 24 23 23 22 22 21 19 19 19 20 21 20 20 20 20 20 19 19 19 19 19 19 19 19 19 19 19 19 19 19 19 18 19 19 19 18 18 18 18 18 18 17
20 18 19 20 21 22 24 24 23 22 22 21 21 19 18 19 19 20 20 20 19 19 19 19 19 19 19 19 19 19 19 19 19 19 19 19 19 18 18 18 18 18 18 18 18 18 18 18 17
21 18 20 20 21 23 23 23 23 22 21 21 21 19 19 19 19 19 19 19 19 19 19 19 19 19 19 19 19 19 19 19 19 19 19 18 18 18 18 18 18 18 18 18 18 18 18 18 17
21 18 18 20 21 23 23 23 22 22 21 21 20 21 21 20 19 19 18 18 19 19 19 19 19 19 19 19 19 19 18 18 18 18 18 18 18 18 18 18 18 18 18 18 18 18 18 18 17
21 18 20 21 22 22 23 22 22 21 21 20 19 20 20 19 19 18 18 18 18 19 19 19 19 19 18 18 18 18 18 18 18 18 18 18 18 18 18 18 18 18 18 18 18 18 18 18 18
21 20 21 22 23 23 22 21 21 21 20 20 19 19 19 19 18 18 19 19 19 19 19 19 19 19 19 18 18 18 18 18 18 18 18 18 18 17 17 17 17 17 17 17 17 17 17 17 17
21 21 22 23 23 22 22 21 20 19 19 20 20 19 19 18 18 18 19 18 19 19 19 19 18 18 18 18 18 18 18 18 18 18 18 18 17 17 17 17 17 17 17 17 17 17 17 17 17
22 22 23 23 22 21 21 20 19 18 19 19 19 19 18 18 18 18 19 18 18 18 18 18 18 18 18 18 18 18 18 18 18 17 17 17 17 17 17 17 17 17 17 17 17 17 17 17 17
23 23 22 22 22 21 20 19 19 18 18 18 18 18 18 18 18 18 18 18 18 18 18 18 18 18 18 18 18 18 18 17 17 17 17 17 17 17 17 17 17 17 17 16 16 16 16 16 16
23 22 21 22 21 21 20 19 18 18 18 18 17 17 18 18 18 18 18 18 18 18 18 18 18 18 18 18 18 17 17 17 17 17 17 17 17 17 17 16 16 16 16 16 16 16 16 16 16
22 21 21 21 21 21 20 19 18 18 17 17 17 17 17 17 17 18 18 18 18 18 18 18 18 18 18 18 18 17 17 17 17 17 17 17 17 17 16 16 16 16 16 16 16 16 16 16 16
21 21 21 21 21 20 20 19 18 18 17 17 17 17 17 17 17 17 18 18 18 18 18 18 18 18 18 17 17 17 17 17 17 17 17 17 16 16 16 16 16 16 16 16 16 15 15 15 15
22 22 21 21 21 20 19 18 17 17 17 17 16 16 17 17 17 17 17 18 18 18 18 18 18 18 17 17 17 17 17 17 17 16 16 16 16 16 16 16 16 15 15 15 15 15 15 15 15
22 22 21 21 21 20 18 18 17 17 17 16 16 16 16 17 17 17 17 18 17 17 17 18 17 17 17 17 17 17 17 17 16 16 16 16 16 16 15 15 15 15 15 15 15 14 14 14 14
22 21 21 20 20 19 18 18 18 17 17 17 16 16 17 17 17 17 17 17 17 17 17 17 17 17 17 17 17 17 17 17 16 16 16 16 16 15 15 15 15 15 14 14 14 14 14 14 14
22 21 21 20 19 19 18 18 18 17 17 17 17 17 17 17 17 17 17 17 17 17 17 18 17 17 17 17 17 17 17 16 16 16 16 16 15 15 15 15 14 14 14 14 14 14 14 13 13
22 22 21 20 19 17 18 17 17 17 17 17 17 17 17 18 18 18 18 18 18 18 18 18 17 17 17 17 17 17 17 16 16 16 16 15 15 15 15 14 14 14 14 13 13 13 13 13 13
22 21 20 19 18 17 17 17 17 17 17 17 17 17 18 18 18 18 18 18 18 18 18 18 17 17 17 17 17 16 16 16 16 16 15 15 15 15 14 14 14 13 13 13 13 13 12 12 12
21 19 18 16 16 18 18 17 17 16 17 17 17 18 18 18 18 18 18 18 18 18 18 18 17 17 17 17 16 16 16 16 16 15 15 15 14 14 14 14 13 13 13 13 12 12 12 12 12
21 19 18 19 17 18 17 17 17 18 18 18 18 18 19 18 18 18 18 18 18 18 18 18 17 17 17 17 16 16 16 15 15 15 15 14 14 14 13 13 13 13 12 12 12 12 12 11 11
20 20 19 20 19 18 18 17 18 19 19 19 19 19 19 19 19 19 19 19 18 18 18 18 18 18 17 17 16 16 15 15 15 15 14 14 14 13 13 13 13 12 12 12 12 11 11 11 11
20 19 18 17 18 18 18 18 18 18 18 18 18 19 19 19 19 19 19 19 19 19 18 18 18 18 17 17 16 16 15 15 15 14 14 14 13 13 13 13 12 12 12 12 11 11 11 11 11
21 18 16 17 18 19 19 19 18 19 18 17 17 18 19 20 20 20 20 20 20 19 19 18 18 18 17 17 16 16 15 15 14 14 14 14 13 13 13 12 12 12 12 11 11 11 11 11 11
20 19 16 15 16 18 19 19 19 18 18 18 18 19 20 21 21 20 20 20 20 19 19 19 18 18 17 17 16 16 15 15 14 14 14 14 13 13 13 12 12 12 12 11 11 11 11 11 11
21 19 17 18 18 16 17 18 20 18 18 19 19 20 21 21 21 21 21 20 20 20 19 19 19 18 17 17 16 16 15 15 15 14 14 14 13 13 13 12 12 12 12 12 11 11 11 11 11
Wind_Speed
5 4 1 0 3 4 3 3 1 1 1 2 4 5 5 2 2 2 2 10 16 16 17 21 21 21 20 20 20 19 19 19 18 18 17 16 15 14 13 12 11 11 11 11 11 11 11 12 12
5 3 0 2 4 2 4 2 2 2 4 5 4 4 4 1 2 4 5 10 16 15 17 19 22 21 20 20 19 19 18 18 17 17 16 15 14 13 13 12 11 10 10 10 10 11 11 11 11
4 2 2 3 2 2 4 3 3 1 4 5 4 3 2 2 4 4 6 13 14 12 15 19 22 21 20 19 19 18 18 17 16 16 15 14 13 12 12 11 10 10 10 10 10 10 10 10 10
2 2 3 3 2 4 5 5 2 3 2 3 5 4 2 2 3 7 14 15 14 11 14 19 22 20 20 19 18 17 17 16 15 15 14 13 12 11 11 10 10 9 9 9 9 9 9 9 8
3 4 4 3 5 5 4 3 2 3 2 3 5 4 1 2 8 14 16 16 15 12 13 18 21 20 19 19 18 17 16 16 15 14 13 12 11 11 10 10 9 9 8 8 8 8 8 7 7
4 4 3 2 5 5 4 2 2 2 3 4 5 4 1 3 10 13 13 13 13 12 12 17 20 19 19 18 17 17 16 15 14 13 12 12 10 9 9 9 8 8 8 7 7 7 6 6 5
4 4 1 3 4 5 3 2 1 3 3 3 4 5 2 5 8 11 12 12 11 10 9 11 16 17 18 17 17 16 15 14 13 12 12 11 10 9 8 8 7 7 7 6 6 5 5 4 3
4 4 1 3 4 5 3 1 1 2 2 2 4 6 5 6 10 11 11 10 10 8 7 8 11 13 13 14 15 14 13 12 12 11 11 10 9 9 8 7 6 6 6 5 5 5 4 3 2
4 3 2 5 5 5 1 0 1 2 4 2 1 3 6 14 14 13 12 10 10 9 6 6 7 9 10 11 12 12 12 11 11 10 10 8 6 6 6 6 6 6 5 5 4 4 4 3 1
4 3 7 6 5 4 2 2 1 2 2 2 3 6 13 15 14 14 15 14 12 11 9 7 7 7 9 8 8 7 7 8 7 7 7 6 5 4 4 5 6 5 5 4 3 3 3 2 1
7 7 5 5 5 4 2 1 0 3 2 3 5 10 14 14 12 12 12 11 11 10 9 7 7 7 7 5 6 6 5 5 5 6 6 5 4 3 2 2 2 2 3 1 1 1 1 1 1
5 6 5 4 2 1 1 2 2 1 1 1 6 11 12 13 11 10 10 9 8 9 8 7 6 6 6 6 5 5 4 4 4 4 6 6 3 2 2 2 2 2 2 2 1 1 1 1 0
5 4 2 1 2 3 4 3 3 2 3 5 8 9 9 10 8 7 7 7 7 7 6 7 7 7 6 5 4 4 3 4 4 4 4 6 4 3 2 2 2 2 2 2 2 1 1 1 1
4 2 1 1 2 2 5 3 3 1 4 7 8 7 7 7 7 5 6 7 7 7 7 6 7 6 6 4 3 3 4 4 4 4 4 5 5 4 3 3 3 3 3 2 2 2 1 1 1
1 1 3 2 1 2 4 4 2 1 4 7 6 6 6 5 6 6 7 8 7 6 6 7 7 6 7 5 4 4 5 5 4 4 5 5 6 6 5 3 2 3 3 3 3 3 2 1 1
3 3 2 3 1 1 4 1 1 1 4 5 5 6 7 5 4 4 6 6 6 6 6 7 7 7 6 5 4 4 5 5 4 5 5 5 6 7 6 3 2 3 4 3 2 2 2 1 1
4 2 3 4 1 2 3 3 1 1 3 4 4 5 7 6 4 3 4 5 6 6 6 6 6 6 6 5 4 5 5 4 4 5 4 5 6 7 6 4 3 4 4 3 2 2 1 1 2
5 3 3 4 1 2 2 1 1 1 2 2 3 4 6 6 5 4 4 5 6 6 5 5 6 6 6 5 5 4 4 3 4 4 4 4 5 6 6 5 4 5 3 3 2 2 2 1 2
4 4 5 4 1 2 2 1 2 2 2 3 3 4 5 5 5 5 5 6 7 7 6 6 6 6 6 4 4 4 2 2 2 2 3 4 5 6 6 4 4 4 3 2 2 1 2 2 2
4 4 4 1 2 2 1 1 2 3 4 4 5 5 5 4 5 6 6 6 7 7 7 7 7 6 5 4 3 3 3 3 2 2 3 4 4 5 5 5 4 3 3 3 2 2 1 2 2
4 6 5 4 2 4 3 4 2 2 2 3 4 5 5 7 8 7 6 6 8 8 8 8 7 6 5 5 4 4 4 3 2 2 2 2 3 4 5 5 5 4 3 2 1 2 2 1 1
5 4 5 5 4 1 2 2 5 3 3 4 5 6 6 6 7 7 8 7 8 7 7 7 7 6 5 6 6 6 4 3 2 1 1 2 3 4 4 5 5 4 3 2 1 2 1 2 0
3 4 5 5 4 2 1 1 6 1 5 8 8 8 8 8 8 8 9 9 7 7 7 7 7 6 5 6 7 6 5 3 3 2 3 2 3 3 4 5 5 4 2 2 1 2 1 1 1
6 7 7 6 5 1 2 2 5 5 8 7 8 9 10 9 9 8 7 7 6 7 7 7 8 6 6 6 7 7 7 6 5 4 3 2 2 2 3 4 4 3 2 2 2 2 2 1 1
5 6 4 4 4 5 2 3 8 7 8 9 10 11 10 9 9 10 9 9 8 9 9 8 8 7 6 7 6 7 7 7 6 5 4 3 2 1 1 2 2 2 2 2 2 1 1 1 2
5 7 6 4 4 5 2 5 7 5 5 6 8 8 9 9 10 11 11 11 10 10 9 9 9 8 7 7 6 6 6 5 4 5 4 4 3 3 2 2 2 2 2 1 2 1 1 1 2
7 4 5 6 2 2 5 6 7 1 3 6 7 8 10 11 11 11 10 10 10 11 10 11 10 8 8 8 7 6 6 6 5 5 4 3 3 2 3 2 2 1 1 2 1 1 2 1 2
5 9 6 5 4 3 5 5 5 6 7 7 9 10 11 10 10 11 10 11 10 10 9 9 9 9 8 8 7 6 6 6 5 5 5 4 4 3 3 3 2 2 2 2 2 2 2 2 3
5 5 5 5 5 5 3 7 7 11 12 12 13 12 12 12 12 12 11 10 9 9 9 9 9 8 8 8 7 6 6 6 5 5 6 5 4 4 4 4 3 3 3 2 2 3 3 3 4
5 7 8 5 4 5 4 8 6 8 10 12 13 12 11 12 12 11 10 10 10 10 10 10 10 9 9 8 7 7 6 6 6 6 6 5 5 5 5 4 4 4 4 3 4 5 4 4 5
Wind_Direction
184 160 147 78 48 39 301 272 220 232 181 124 112 112 128 151 193 230 106 138 136 142 150 150 147 143 139 136 134 133 132 131 131 132 133 133 134 133 131 129 126 124 121 117 116 112 110 109 108
148 154 155 56 70 23 296 263 201 201 154 130 100 94 104 115 77 102 125 140 140 144 148 151 149 145 143 141 139 138 136 136 135 135 136 136 136 135 133 131 129 127 124 121 119 116 113 112 112
151 183 88 64 86 200 268 248 199 144 137 142 124 100 103 127 125 139 145 139 136 140 147 154 151 149 147 145 144 142 141 140 140 140 140 140 139 138 135 134 132 129 128 124 121 118 116 114 114
127 56 52 56 285 245 241 260 213 141 116 106 122 105 80 44 138 142 139 140 138 140 149 157 153 152 151 149 147 147 146 145 145 145 145 145 145 144 140 137 134 132 131 129 124 120 118 116 114
66 75 48 356 282 269 265 266 171 165 149 121 122 121 97 17 117 134 141 145 147 146 150 158 155 155 155 154 151 151 152 151 151 151 151 150 151 149 145 142 139 137 135 131 127 124 121 117 111
58 65 66 302 286 287 296 316 108 125 130 122 126 129 97 114 129 141 144 145 148 147 148 155 156 159 159 157 156 156 158 159 158 157 156 156 156 155 152 151 149 146 144 141 136 131 128 120 108
108 96 184 254 284 297 306 350 88 133 140 152 137 123 119 138 138 138 138 139 141 140 140 147 157 161 162 160 159 160 162 163 162 161 161 161 161 164 162 160 160 159 156 153 150 147 142 133 117
136 103 298 267 253 270 294 346 37 122 146 117 131 146 171 164 139 130 128 131 134 133 134 139 148 152 157 161 162 163 165 165 165 166 167 170 172 171 171 169 172 172 170 170 169 168 162 157 138
115 77 250 238 223 246 249 342 352 60 107 85 63 152 153 142 139 137 137 136 141 142 136 132 131 136 143 151 161 163 166 168 168 171 172 169 163 169 177 180 185 191 191 194 196 193 187 182 172
123 173 233 225 215 222 225 213 211 95 98 89 75 105 130 140 149 153 155 155 156 156 155 142 134 133 135 147 145 147 155 157 156 159 158 152 154 169 186 199 201 204 201 204 212 216 202 172 135
175 207 240 256 240 216 209 237 34 139 195 193 165 148 146 150 156 163 163 160 158 158 158 146 140 138 135 127 132 131 130 134 144 152 152 153 157 163 174 183 204 204 200 191 205 186 132 123 103
197 247 243 279 298 171 181 129 83 60 252 147 143 146 151 154 158 163 155 153 145 150 153 146 141 139 135 132 134 136 136 137 145 160 164 159 148 141 154 156 144 145 156 149 137 114 95 98 87
216 262 268 250 63 89 83 75 103 41 63 100 116 129 140 151 148 145 142 134 136 146 152 157 150 145 139 133 137 139 141 152 159 158 168 166 153 149 140 124 115 113 128 141 139 112 85 60 345
226 229 264 353 87 77 101 68 74 61 88 95 108 123 143 146 139 130 131 133 157 161 161 156 148 147 141 140 133 135 143 150 150 161 174 169 156 148 131 120 112 106 111 126 123 114 94 51 338
315 350 354 14 122 150 110 47 33 174 114 104 114 126 133 134 141 154 157 152 165 162 156 152 146 140 139 139 142 142 144 144 147 164 170 161 150 138 127 116 106 102 105 106 96 81 69 47 354
34 43 341 306 60 120 123 228 249 112 125 124 133 135 132 132 147 153 153 153 153 154 153 148 147 139 136 138 135 133 136 136 142 145 143 146 145 140 127 118 110 109 102 96 94 75 66 30 4
26 358 284 298 10 87 124 209 227 130 142 145 139 141 137 140 144 144 139 145 151 151 141 135 130 131 129 122 119 116 118 116 122 122 124 132 134 137 131 124 121 117 99 85 93 76 77 34 347
268 276 274 274 309 80 108 215 213 145 157 161 142 146 145 150 161 161 151 147 140 136 131 123 116 120 118 111 103 92 90 95 105 110 121 131 132 136 130 123 117 110 95 76 71 79 61 47 340
229 237 260 272 9 91 140 207 225 198 183 185 174 169 167 156 156 156 154 143 138 138 138 134 131 133 131 123 120 118 120 108 99 107 120 126 134 138 134 126 116 104 99 94 88 88 58 27 5
208 227 242 277 45 82 80 313 244 210 212 196 190 189 181 159 153 152 152 153 154 156 154 148 151 151 147 135 127 124 120 106 93 86 87 98 124 144 148 140 130 121 113 92 77 86 89 29 30
217 207 210 189 81 55 62 336 278 252 227 193 187 181 183 182 171 165 163 163 158 164 167 162 160 155 144 128 112 98 80 68 64 59 58 48 101 132 135 142 136 132 128 126 117 116 122 102 23
240 235 175 140 119 311 80 286 275 245 256 228 206 186 191 190 179 171 170 169 171 168 160 156 155 146 139 140 142 144 142 141 152 133 101 61 72 99 120 134 137 134 130 136 145 127 125 135 124
178 75 95 105 111 59 37 191 281 208 239 237 215 199 197 194 187 183 181 178 173 165 158 155 144 140 143 146 147 140 129 129 116 101 98 75 54 73 103 126 134 137 138 143 132 121 127 144 171
122 75 59 56 70 336 234 187 271 222 218 220 208 198 195 192 187 183 178 168 166 164 156 152 147 147 150 149 148 147 144 142 135 131 127 103 70 55 85 116 125 133 142 152 154 147 148 158 168
98 95 34 359 2 263 242 219 251 238 220 203 198 195 189 185 180 178 176 175 176 171 163 159 157 160 160 155 155 155 154 155 158 158 160 156 147 141 146 122 130 145 165 168 159 163 181 184 191
176 146 160 206 234 279 297 245 256 253 214 197 189 183 180 179 180 183 183 181 181 177 171 167 170 169 167 165 164 157 156 156 161 167 166 172 181 191 185 162 171 182 180 173 166 188 221 208 220
138 155 154 131 145 293 283 285 302 166 164 173 175 177 188 186 185 189 186 183 181 180 180 177 173 171 173 171 164 163 165 166 171 171 169 178 192 199 188 186 194 212 209 201 188 219 243 233 240
132 141 106 122 149 260 292 279 250 221 199 189 189 194 200 192 189 191 189 189 187 184 180 173 173 177 175 173 173 176 177 178 174 171 186 196 203 199 193 207 218 230 232 218 208 237 246 242 252
124 113 114 122 153 164 258 274 227 206 193 191 199 204 202 196 195 195 194 191 182 175 174 178 178 174 175 179 178 174 179 179 178 189 201 201 203 204 209 216 221 232 241 235 226 244 248 250 261
164 167 150 154 201 177 188 268 270 211 197 190 197 205 203 200 198 194 187 178 177 180 181 184 183 182 184 179 176 181 180 178 187 202 208 204 209 213 214 216 223 237 242 238 234 248 251 249 257
Height
1514 1514 1514 1515 1517 1523 1522 1514 1509 1507 1506 1506 1507 1508 1510 1512 1515 1519 1514 1514 1518 1522 1527 1531 1534 1537 1540 1542 1544 1545 1547 1548 1550 1551 1552 1554 1555 1556 1557 1558 1559 1559 1560 1561 1561 1562 1562 1562 1563
1514 1514 1516 1516 1521 1530 1523 1510 1508 1505 1504 1505 1507 1509 1509 1511 1511 1512 1512 1515 1520 1523 1527 1531 1535 1538 1541 1543 1545 1546 1548 1549 1551 1552 1554 1555 1556 1557 1558 1559 1560 1561 1562 1562 1563 1563 1564 1564 1565
1514 1515 1516 1517 1523 1527 1518 1507 1504 1503 1503 1504 1506 1508 1510 1511 1511 1511 1513 1516 1521 1525 1528 1532 1535 1538 1541 1544 1546 1547 1549 1551 1552 1554 1555 1556 1558 1559 1560 1561 1562 1562 1563 1564 1564 1565 1566 1566 1567
1515 1516 1517 1520 1522 1515 1509 1503 1502 1502 1504 1504 1505 1509 1509 1510 1511 1512 1513 1517 1521 1526 1530 1533 1536 1539 1542 1544 1546 1548 1550 1552 1553 1555 1556 1558 1559 1560 1561 1562 1563 1564 1564 1565 1566 1567 1567 1568 1569
1515 1516 1521 1525 1520 1510 1503 1501 1500 1501 1502 1503 1505 1507 1509 1510 1510 1512 1513 1517 1521 1526 1530 1534 1537 1540 1543 1545 1547 1549 1551 1553 1554 1556 1557 1559 1560 1561 1562 1563 1564 1565 1566 1567 1567 1568 1569 1570 1570
1516 1517 1528 1529 1519 1508 1502 1500 1500 1501 1502 1503 1505 1507 1509 1510 1510 1512 1515 1518 1522 1526 1530 1534 1537 1541 1543 1546 1548 1550 1552 1554 1555 1557 1558 1560 1561 1562 1563 1564 1565 1566 1567 1568 1569 1569 1570 1571 1572
1517 1521 1525 1523 1518 1510 1502 1500 1500 1501 1502 1503 1504 1507 1508 1510 1511 1513 1516 1519 1524 1528 1531 1534 1538 1541 1544 1547 1549 1551 1553 1555 1556 1558 1559 1560 1562 1563 1564 1565 1566 1567 1568 1569 1570 1571 1571 1572 1573
1516 1520 1523 1523 1518 1510 1502 1501 1501 1501 1502 1503 1504 1505 1507 1509 1511 1514 1517 1520 1525 1529 1532 1535 1538 1542 1544 1547 1549 1551 1553 1555 1557 1558 1560 1561 1562 1564 1565 1566 1567 1568 1569 1570 1571 1571 1572 1573 1573
1515 1523 1527 1519 1514 1507 1502 1501 1501 1501 1502 1503 1503 1504 1505 1508 1510 1514 1517 1521 1524 1529 1533 1536 1539 1542 1545 1548 1550 1552 1554 1556 1557 1559 1560 1562 1563 1564 1565 1566 1567 1568 1569 1570 1571 1572 1572 1573 1573
1515 1524 1517 1508 1504 1502 1501 1501 1501 1502 1502 1504 1504 1504 1505 1507 1510 1512 1515 1519 1523 1527 1532 1536 1539 1542 1545 1548 1550 1552 1554 1556 1557 1559 1561 1562 1563 1564 1565 1566 1567 1568 1569 1570 1571 1571 1572 1573 1573
1511 1513 1506 1502 1501 1500 1500 1501 1501 1502 1503 1502 1502 1503 1505 1507 1510 1513 1516 1519 1523 1527 1531 1535 1539 1542 1544 1547 1549 1552 1554 1556 1557 1559 1561 1562 1564 1564 1565 1566 1567 1568 1569 1570 1570 1571 1571 1572 1573
1509 1505 1503 1501 1500 1500 1500 1500 1501 1502 1502 1501 1502 1504 1505 1508 1510 1513 1515 1521 1524 1527 1531 1535 1539 1542 1544 1547 1549 1551 1554 1556 1558 1559 1561 1562 1563 1564 1565 1566 1567 1568 1568 1569 1569 1570 1571 1571 1572
1506 1504 1502 1500 1500 1500 1500 1501 1502 1503 1502 1501 1503 1505 1507 1509 1511 1514 1518 1522 1525 1528 1532 1535 1538 1541 1544 1547 1549 1551 1553 1555 1557 1559 1561 1562 1563 1564 1565 1566 1566 1567 1567 1568 1568 1569 1569 1570 1570
1503 1502 1501 1501 1501 1501 1501 1503 1503 1504 1504 1504 1505 1506 1507 1510 1513 1516 1519 1522 1526 1528 1532 1535 1538 1541 1544 1546 1549 1551 1553 1555 1557 1559 1560 1561 1562 1563 1564 1565 1565 1565 1566 1566 1567 1567 1568 1568 1568
1502 1503 1502 1501 1501 1502 1502 1506 1505 1505 1505 1505 1506 1507 1508 1511 1514 1516 1518 1522 1526 1529 1533 1536 1538 1541 1544 1546 1548 1550 1552 1554 1556 1558 1560 1561 1562 1562 1563 1564 1564 1564 1565 1565 1565 1566 1566 1566 1566
1503 1507 1510 1503 1501 1501 1506 1512 1506 1506 1506 1506 1507 1508 1509 1512 1514 1516 1518 1522 1525 1529 1532 1535 1538 1541 1543 1546 1548 1550 1552 1554 1556 1558 1559 1560 1561 1561 1562 1563 1563 1563 1564 1564 1564 1564 1564 1564 1564
1510 1516 1513 1506 1501 1502 1505 1510 1506 1506 1507 1508 1509 1510 1511 1512 1514 1516 1518 1521 1524 1528 1531 1535 1537 1540 1543 1545 1548 1550 1552 1554 1556 1557 1558 1559 1560 1561 1562 1562 1562 1563 1563 1563 1563 1563 1563 1563 1563
1515 1514 1511 1509 1503 1503 1507 1508 1506 1506 1507 1508 1510 1511 1512 1512 1514 1516 1519 1521 1524 1528 1532 1535 1537 1540 1543 1546 1548 1550 1552 1553 1555 1556 1558 1558 1559 1560 1561 1561 1562 1562 1562 1562 1562 1562 1562 1562 1561
1505 1509 1511 1507 1502 1505 1508 1508 1507 1506 1508 1509 1509 1510 1511 1513 1515 1517 1519 1521 1524 1528 1532 1535 1538 1541 1543 1546 1548 1550 1551 1553 1555 1556 1557 1558 1558 1559 1560 1560 1561 1561 1561 1561 1561 1561 1561 1560 1560
1503 1509 1509 1506 1503 1506 1510 1510 1507 1506 1507 1508 1509 1510 1511 1513 1515 1517 1520 1521 1524 1528 1532 1535 1538 1541 1543 1546 1548 1550 1552 1553 1554 1555 1556 1557 1558 1558 1558 1559 1560 1560 1560 1560 1560 1559 1559 1559 1558
1503 1506 1506 1508 1507 1508 1512 1514 1510 1507 1506 1507 1509 1510 1512 1513 1515 1517 1520 1522 1525 1529 1532 1535 1538 1541 1543 1545 1548 1550 1551 1553 1554 1555 1556 1556 1557 1557 1558 1558 1559 1559 1559 1558 1558 1558 1557 1557 1557
1503 1495 1498 1504 1513 1520 1517 1527 1514 1508 1507 1506 1507 1509 1511 1513 1514 1517 1519 1522 1525 1529 1532 1535 1538 1541 1543 1545 1547 1549 1551 1552 1553 1554 1555 1555 1556 1556 1556 1557 1557 1557 1557 1557 1556 1556 1556 1555 1555
1497 1495 1500 1506 1514 1522 1520 1527 1519 1509 1509 1505 1504 1506 1509 1511 1514 1516 1519 1521 1525 1528 1532 1535 1538 1540 1542 1545 1546 1548 1550 1551 1552 1553 1554 1554 1555 1555 1555 1555 1555 1555 1555 1555 1554 1554 1554 1553 1553
1494 1501 1507 1515 1521 1529 1521 1526 1520 1511 1503 1500 1501 1503 1506 1509 1512 1515 1518 1521 1525 1528 1531 1534 1537 1539 1541 1544 1545 1547 1549 1550 1551 1551 1552 1553 1553 1553 1553 1553 1553 1553 1553 1553 1552 1552 1551 1551 1551
1496 1511 1528 1529 1536 1531 1519 1521 1515 1497 1493 1494 1496 1499 1503 1506 1509 1513 1516 1520 1523 1527 1530 1533 1536 1538 1540 1542 1544 1546 1547 1548 1549 1550 1551 1551 1551 1552 1552 1552 1552 1551 1551 1551 1550 1550 1549 1549 1548
1497 1505 1525 1533 1535 1529 1519 1520 1503 1490 1489 1491 1493 1497 1501 1504 1507 1511 1514 1518 1522 1525 1529 1532 1534 1537 1539 1541 1543 1545 1546 1547 1548 1549 1549 1550 1550 1550 1550 1550 1550 1549 1549 1548 1548 1547 1547 1547 1546
1497 1504 1505 1522 1526 1529 1522 1511 1496 1488 1489 1490 1493 1496 1499 1502 1506 1509 1513 1517 1520 1524 1527 1530 1533 1535 1538 1540 1542 1543 1545 1545 1546 1547 1548 1548 1548 1548 1548 1548 1548 1547 1547 1546 1546 1545 1545 1544 1544
1488 1498 1511 1522 1531 1532 1520 1514 1506 1492 1490 1489 1491 1493 1495 1499 1503 1507 1511 1515 1518 1522 1525 1529 1531 1534 1536 1538 1540 1542 1543 1544 1545 1546 1546 1546 1546 1546 1546 1546 1546 1545 1545 1544 1544 1543 1543 1542 1542
1493 1499 1507 1519 1521 1529 1529 1515 1485 1482 1481 1484 1486 1489 1492 1496 1499 1504 1508 1512 1516 1520 1523 1526 1529 1532 1534 1536 1538 1540 1541 1542 1543 1544 1544 1544 1544 1544 1544 1544 1543 1543 1543 1542 1541 1541 1540 1540 1539
1483 1490 1501 1512 1517 1522 1524 1511 1474 1474 1475 1478 1482 1485 1488 1492 1496 1500 1505 1509 1513 1517 1520 1524 1527 1529 1532 1534 1536 1538 1539 1540 1541 1542 1542 1542 1542 1542 1542 1542 1541 1541 1540 1540 1539 1538 1538 1537 1537